When you browse on this site, cookies collect data to enhance your experience and personalize the content and advertising you see.
Visit our Privacy Policy to learn more. By continuing to use the site, you agree to this use of cookies and data.
  • In Czech Republic
  • List of Countries
  • For 7 days
  • Water Temperature
  • Weather Map
  • Weather Widgets
  • user-avatar
    Login

    Hourly Weather Yulara

    Today, 16 September, Monday

    Time Temperature Precipitation Wind Pressure Humidity
    00:00 +19°C° 0 mm 2 mps 719 mmHg 32%
    01:00 +18°C° 0 mm 2 mps 719 mmHg 30%
    02:00 +16°C° 0 mm 1 mps 718 mmHg 29%
    03:00 +15°C° 0 mm 1 mps 718 mmHg 35%
    04:00 +14°C° 0 mm 1 mps 718 mmHg 37%
    05:00 +14°C° 0 mm 1 mps 718 mmHg 39%
    06:00 +14°C° 0 mm 1 mps 719 mmHg 41%
    07:00 +20°C° 0 mm 1 mps 719 mmHg 31%
    08:00 +24°C° 0 mm 1 mps 720 mmHg 20%
    09:00 +29°C° 0 mm 1 mps 721 mmHg 10%
    10:00 +31°C° 0 mm 1 mps 721 mmHg 9%
    11:00 +32°C° 0 mm 2 mps 721 mmHg 8%
    12:00 +35°C° 0 mm 3 mps 720 mmHg 7%
    13:00 +35°C° 0 mm 2 mps 720 mmHg 7%
    14:00 +36°C° 0 mm 2 mps 719 mmHg 7%
    15:00 +36°C° 0 mm 2 mps 719 mmHg 6%
    16:00 +34°C° 0 mm 2 mps 718 mmHg 8%
    17:00 +30°C° 0 mm 3 mps 718 mmHg 10%
    18:00 +28°C° 0 mm 3 mps 718 mmHg 11%
    19:00 +27°C° 0 mm 5 mps 719 mmHg 18%
    20:00 +24°C° 0 mm 6 mps 719 mmHg 25%
    21:00 +23°C° 0 mm 8 mps 720 mmHg 32%
    22:00 +22°C° 0 mm 8 mps 720 mmHg 36%
    23:00 +21°C° 0 mm 7 mps 720 mmHg 40%

    Tomorrow, 17 September, Tuesday

    Time Temperature Precipitation Wind Pressure Humidity
    00:00 +20°C° 0 mm 6 mps 720 mmHg 43%
    01:00 +19°C° 0 mm 6 mps 720 mmHg 47%
    02:00 +17°C° 0 mm 6 mps 720 mmHg 50%
    03:00 +15°C° 0 mm 5 mps 720 mmHg 53%
    04:00 +15°C° 0 mm 5 mps 720 mmHg 55%
    05:00 +14°C° 0 mm 5 mps 720 mmHg 57%
    06:00 +13°C° 0 mm 5 mps 720 mmHg 60%
    07:00 +16°C° 0 mm 6 mps 721 mmHg 53%
    08:00 +18°C° 0 mm 7 mps 721 mmHg 47%
    09:00 +21°C° 0 mm 8 mps 722 mmHg 40%
    10:00 +24°C° 0 mm 8 mps 721 mmHg 33%
    11:00 +28°C° 0 mm 8 mps 721 mmHg 27%
    12:00 +32°C° 0 mm 7 mps 721 mmHg 20%
    13:00 +33°C° 0 mm 6 mps 720 mmHg 17%
    14:00 +34°C° 0 mm 4 mps 719 mmHg 14%
    15:00 +35°C° 0 mm 3 mps 719 mmHg 12%
    16:00 +33°C° 0 mm 3 mps 719 mmHg 12%
    17:00 +30°C° 0 mm 3 mps 719 mmHg 13%
    18:00 +28°C° 0 mm 2 mps 719 mmHg 14%
    19:00 +27°C° 0 mm 3 mps 719 mmHg 17%
    20:00 +26°C° 0 mm 4 mps 720 mmHg 20%
    21:00 +24°C° 0 mm 6 mps 720 mmHg 24%
    22:00 +23°C° 0 mm 6 mps 720 mmHg 27%
    23:00 +21°C° 0 mm 6 mps 720 mmHg 31%

    Day after tomorrow, 18 September, Wednesday

    Time Temperature Precipitation Wind Pressure Humidity
    00:00 +20°C° 0 mm 6 mps 720 mmHg 34%
    01:00 +19°C° 0 mm 6 mps 720 mmHg 37%
    02:00 +19°C° 0 mm 5 mps 720 mmHg 39%
    03:00 +17°C° 0 mm 5 mps 720 mmHg 41%
    04:00 +16°C° 0 mm 5 mps 720 mmHg 44%
    05:00 +15°C° 0 mm 4 mps 720 mmHg 47%
    06:00 +14°C° 0 mm 4 mps 720 mmHg 50%
    07:00 +18°C° 0 mm 4 mps 720 mmHg 42%
    08:00 +21°C° 0 mm 5 mps 721 mmHg 34%
    09:00 +26°C° 0 mm 6 mps 721 mmHg 27%
    10:00 +29°C° 0 mm 5 mps 721 mmHg 21%
    11:00 +33°C° 0 mm 5 mps 720 mmHg 16%
    12:00 +36°C° 0 mm 5 mps 720 mmHg 10%
    13:00 +36°C° 0 mm 5 mps 719 mmHg 9%
    14:00 +37°C° 0 mm 5 mps 719 mmHg 8%
    15:00 +37°C° 0 mm 5 mps 718 mmHg 7%
    16:00 +35°C° 0 mm 5 mps 718 mmHg 8%
    17:00 +33°C° 0 mm 4 mps 717 mmHg 9%
    18:00 +30°C° 0 mm 4 mps 717 mmHg 11%
    19:00 +28°C° 0 mm 3 mps 718 mmHg 11%
    20:00 +26°C° 0 mm 3 mps 718 mmHg 12%
    21:00 +24°C° 0 mm 3 mps 718 mmHg 13%
    22:00 +24°C° 0 mm 3 mps 718 mmHg 14%
    23:00 +22°C° 0 mm 4 mps 717 mmHg 15%

    19 September, Thursday

    Time Temperature Precipitation Wind Pressure Humidity
    00:00 +21°C° 0 mm 4 mps 717 mmHg 16%
    01:00 +20°C° 0 mm 4 mps 717 mmHg 18%
    02:00 +20°C° 0 mm 4 mps 716 mmHg 20%
    03:00 +19°C° 0 mm 4 mps 716 mmHg 22%
    04:00 +19°C° 0 mm 4 mps 716 mmHg 23%
    05:00 +18°C° 0 mm 4 mps 716 mmHg 24%
    06:00 +18°C° 0 mm 4 mps 716 mmHg 25%
    07:00 +22°C° 0 mm 6 mps 717 mmHg 20%
    08:00 +27°C° 0 mm 8 mps 717 mmHg 16%
    09:00 +33°C° 0 mm 10 mps 717 mmHg 11%
    10:00 +34°C° 0 mm 11 mps 717 mmHg 10%
    11:00 +37°C° 0 mm 11 mps 716 mmHg 9%
    12:00 +39°C° 0 mm 12 mps 716 mmHg 8%
    13:00 +39°C° 0 mm 12 mps 715 mmHg 8%
    14:00 +39°C° 0 mm 12 mps 714 mmHg 8%
    15:00 +39°C° 0 mm 12 mps 713 mmHg 8%
    16:00 +38°C° 0 mm 10 mps 713 mmHg 9%
    17:00 +35°C° 0 mm 9 mps 713 mmHg 10%
    18:00 +34°C° 0 mm 7 mps 713 mmHg 12%
    19:00 +33°C° 0 mm 7 mps 714 mmHg 13%
    20:00 +30°C° 0 mm 7 mps 714 mmHg 14%
    21:00 +29°C° 0 mm 7 mps 715 mmHg 15%
    22:00 +27°C° 0 mm 8 mps 715 mmHg 20%
    23:00 +24°C° 0 mm 9 mps 715 mmHg 25%

    20 September, Friday

    Time Temperature Precipitation Wind Pressure Humidity
    00:00 +21°C° 0 mm 10 mps 715 mmHg 30%
    01:00 +18°C° 0 mm 9 mps 716 mmHg 40%
    02:00 +16°C° 0 mm 9 mps 716 mmHg 50%
    03:00 +13°C° 0 mm 9 mps 716 mmHg 60%
    04:00 +12°C° 0 mm 8 mps 717 mmHg 62%
    05:00 +11°C° 0 mm 8 mps 718 mmHg 64%
    06:00 +11°C° 0 mm 8 mps 719 mmHg 66%
    07:00 +12°C° 0 mm 8 mps 719 mmHg 61%
    08:00 +13°C° 0 mm 8 mps 720 mmHg 55%
    09:00 +15°C° 0 mm 8 mps 720 mmHg 49%
    10:00 +17°C° 0 mm 7 mps 720 mmHg 42%
    11:00 +21°C° 0 mm 7 mps 720 mmHg 35%
    12:00 +23°C° 0 mm 6 mps 719 mmHg 27%
    13:00 +23°C° 0 mm 5 mps 719 mmHg 24%
    14:00 +25°C° 0 mm 5 mps 718 mmHg 20%
    15:00 +26°C° 0 mm 4 mps 718 mmHg 17%
    16:00 +25°C° 0 mm 4 mps 718 mmHg 17%
    17:00 +23°C° 0 mm 5 mps 718 mmHg 17%
    18:00 +22°C° 0 mm 5 mps 718 mmHg 18%
    19:00 +20°C° 0 mm 6 mps 719 mmHg 19%
    20:00 +17°C° 0 mm 7 mps 719 mmHg 21%
    21:00 +16°C° 0 mm 7 mps 719 mmHg 22%
    22:00 +15°C° 0 mm 7 mps 719 mmHg 24%
    23:00 +14°C° 0 mm 7 mps 719 mmHg 26%

    21 September, Saturday

    Time Temperature Precipitation Wind Pressure Humidity
    00:00 +12°C° 0 mm 7 mps 719 mmHg 27%
    01:00 +11°C° 0 mm 6 mps 720 mmHg 30%
    02:00 +10°C° 0 mm 6 mps 720 mmHg 33%
    03:00 +9°C° 0 mm 5 mps 720 mmHg 36%
    04:00 +8°C° 0 mm 6 mps 720 mmHg 39%
    05:00 +7°C° 0 mm 6 mps 721 mmHg 42%
    06:00 +5°C° 0 mm 6 mps 722 mmHg 46%
    07:00 +8°C° 0 mm 7 mps 722 mmHg 43%
    08:00 +10°C° 0 mm 8 mps 723 mmHg 40%
    09:00 +12°C° 0 mm 9 mps 723 mmHg 37%
    10:00 +15°C° 0 mm 9 mps 723 mmHg 32%
    11:00 +17°C° 0 mm 9 mps 723 mmHg 28%
    12:00 +20°C° 0 mm 8 mps 722 mmHg 24%
    13:00 +21°C° 0 mm 7 mps 722 mmHg 23%
    14:00 +22°C° 0 mm 6 mps 721 mmHg 22%
    15:00 +23°C° 0 mm 6 mps 720 mmHg 21%
    16:00 +22°C° 0 mm 5 mps 721 mmHg 22%
    17:00 +21°C° 0 mm 5 mps 721 mmHg 24%
    18:00 +20°C° 0 mm 5 mps 721 mmHg 26%
    19:00 +17°C° 0 mm 5 mps 722 mmHg 29%
    20:00 +15°C° 0 mm 5 mps 722 mmHg 31%
    21:00 +14°C° 0 mm 5 mps 723 mmHg 34%
    22:00 +13°C° 0 mm 6 mps 723 mmHg 35%
    23:00 +11°C° 0 mm 7 mps 723 mmHg 35%
    Show more